Location: Cerbedi�res
(48.2182°N, 1.4849°W)
Time: 11:23:16
(UTC+00:00)

IRS-1A Rocket - Pass Details

Date: 03 March 2021
Orbit: 851 x 931 km, 99.2° (Epoch: 11 April)

Event Time Altitude Azimuth Distance (km) Brightness Sun altitude
Exits shadow 19:46:41 21° 151° (SSE) 1,872 5.6 -19.6°
Maximum altitude 19:50:31 71° 71° (ENE) 921 4.2 -20.2°
Drops below altitude 10° 19:56:04 10° 348° (NNW) 2,510 7.0 -21.1°
Sets 19:58:26 0° 347° (NNW) 3,444 7.8 -21.5°
